Time,TemperatureF,DewpointF,PressureIn,WindDirection,WindDirectionDegrees,WindSpeedMPH,WindSpeedGustMPH,Humidity,HourlyPrecipIn,Conditions,Clouds,dailyrainin,SoftwareType,DateUTC
2013-08-25 00:09:00,57.8,53.0,30.33,SE,130,0.0,-999.0,85,-99.99,,,0.00,weatherlink.com 1.10,2013-08-25 04:09:00,
2013-08-25 00:24:00,57.2,53.0,30.33,SE,130,0.0,-999.0,86,-99.99,,,0.00,weatherlink.com 1.10,2013-08-25 04:24:00,
2013-08-25 00:39:00,57.2,53.0,30.33,SSE,167,0.0,-999.0,86,-99.99,,,0.00,weatherlink.com 1.10,2013-08-25 04:39:00,
2013-08-25 00:54:00,57.2,53.0,30.33,SSE,167,0.0,-999.0,86,-99.99,,,0.00,weatherlink.com 1.10,2013-08-25 04:54:00,
2013-08-25 01:09:00,57.8,53.0,30.32,SE,140,0.0,-999.0,85,-99.99,,,0.00,weatherlink.com 1.10,2013-08-25 05:09:00,
2013-08-25 01:24:00,57.9,53.0,30.32,SSW,194,0.0,-999.0,84,-99.99,,,0.00,weatherlink.com 1.10,2013-08-25 05:24:00,
2013-08-25 01:39:00,57.8,53.0,30.32,SE,128,1.0,-999.0,85,-99.99,,,0.00,weatherlink.com 1.10,2013-08-25 05:39:00,
2013-08-25 01:54:00,57.6,53.0,30.32,SSE,152,4.0,-999.0,85,-99.99,,,0.00,weatherlink.com 1.10,2013-08-25 05:54:00,
2013-08-25 02:09:00,57.7,53.0,30.32,SSE,160,2.0,-999.0,85,-99.99,,,0.00,weatherlink.com 1.10,2013-08-25 06:09:00,
2013-08-25 02:24:00,57.5,53.0,30.32,SSE,167,5.0,-999.0,86,-99.99,,,0.00,weatherlink.com 1.10,2013-08-25 06:24:00,
2013-08-25 02:39:00,57.5,53.0,30.32,South,180,0.0,-999.0,86,-99.99,,,0.00,weatherlink.com 1.10,2013-08-25 06:39:00,
2013-08-25 02:54:00,57.2,53.0,30.32,ESE,113,0.0,-999.0,87,-99.99,,,0.00,weatherlink.com 1.10,2013-08-25 06:54:00,
2013-08-25 03:09:00,57.1,53.0,30.31,SE,137,1.0,-999.0,87,-99.99,,,0.00,weatherlink.com 1.10,2013-08-25 07:09:00,
2013-08-25 03:24:00,57.1,53.0,30.31,SSE,160,0.0,-999.0,87,-99.99,,,0.00,weatherlink.com 1.10,2013-08-25 07:24:00,
2013-08-25 03:39:00,57.0,54.0,30.31,SSE,164,1.0,-999.0,88,-99.99,,,0.00,weatherlink.com 1.10,2013-08-25 07:39:00,
2013-08-25 03:54:00,57.0,54.0,30.31,SSE,165,6.0,-999.0,88,-99.99,,,0.00,weatherlink.com 1.10,2013-08-25 07:54:00,
2013-08-25 04:09:00,56.9,53.0,30.32,SSE,167,4.0,-999.0,88,-99.99,,,0.00,weatherlink.com 1.10,2013-08-25 08:09:00,
2013-08-25 04:24:00,56.9,54.0,30.32,SE,138,0.0,-999.0,89,-99.99,,,0.00,weatherlink.com 1.10,2013-08-25 08:24:00,
2013-08-25 04:39:00,56.7,54.0,30.32,SE,146,1.0,-999.0,90,-99.99,,,0.00,weatherlink.com 1.10,2013-08-25 08:39:00,
2013-08-25 04:54:00,56.5,54.0,30.32,SSE,152,2.0,-999.0,91,-99.99,,,0.00,weatherlink.com 1.10,2013-08-25 08:54:00,
2013-08-25 05:09:00,56.4,54.0,30.32,SSE,159,1.0,-999.0,91,-99.99,,,0.00,weatherlink.com 1.10,2013-08-25 09:09:00,
2013-08-25 05:24:00,56.2,54.0,30.33,South,171,4.0,-999.0,92,-99.99,,,0.00,weatherlink.com 1.10,2013-08-25 09:24:00,
2013-08-25 05:39:00,56.1,54.0,30.33,South,171,4.0,-999.0,92,-99.99,,,0.00,weatherlink.com 1.10,2013-08-25 09:39:00,
2013-08-25 05:54:00,55.8,54.0,30.33,SSE,153,4.0,-999.0,93,-99.99,,,0.00,weatherlink.com 1.10,2013-08-25 09:54:00,
2013-08-25 06:09:00,55.7,54.0,30.33,SSE,153,2.0,-999.0,94,-99.99,,,0.00,weatherlink.com 1.10,2013-08-25 10:09:00,
2013-08-25 06:24:00,55.5,54.0,30.34,SSE,153,2.0,-999.0,94,-99.99,,,0.00,weatherlink.com 1.10,2013-08-25 10:24:00,
2013-08-25 06:39:00,55.4,54.0,30.34,SSE,153,4.0,-999.0,95,-99.99,,,0.00,weatherlink.com 1.10,2013-08-25 10:39:00,
2013-08-25 06:54:00,55.6,55.0,30.35,SSE,153,0.0,-999.0,96,-99.99,,,0.00,weatherlink.com 1.10,2013-08-25 10:54:00,
2013-08-25 07:09:00,55.8,55.0,30.35,SSE,153,0.0,-999.0,96,-99.99,,,0.00,weatherlink.com 1.10,2013-08-25 11:09:00,
2013-08-25 07:24:00,56.0,55.0,30.36,SSE,153,0.0,-999.0,97,-99.99,,,0.00,weatherlink.com 1.10,2013-08-25 11:24:00,
2013-08-25 07:39:00,56.2,55.0,30.37,SSE,153,0.0,-999.0,97,-99.99,,,0.00,weatherlink.com 1.10,2013-08-25 11:39:00,
2013-08-25 07:54:00,56.6,56.0,30.38,SSE,153,0.0,-999.0,97,-99.99,,,0.00,weatherlink.com 1.10,2013-08-25 11:54:00,
2013-08-25 08:09:00,57.1,56.0,30.39,SSE,153,0.0,-999.0,96,-99.99,,,0.00,weatherlink.com 1.10,2013-08-25 12:09:00,
2013-08-25 08:24:00,57.8,56.0,30.39,South,173,0.0,-999.0,95,-99.99,,,0.00,weatherlink.com 1.10,2013-08-25 12:24:00,
2013-08-25 08:39:00,58.4,56.0,30.39,South,174,0.0,-999.0,93,-99.99,,,0.00,weatherlink.com 1.10,2013-08-25 12:39:00,
2013-08-25 08:54:00,59.3,57.0,30.39,West,273,0.0,-999.0,91,-99.99,,,0.00,weatherlink.com 1.10,2013-08-25 12:54:00,
2013-08-25 09:09:00,60.2,56.0,30.39,SSW,196,4.0,-999.0,86,-99.99,,,0.00,weatherlink.com 1.10,2013-08-25 13:09:00,
2013-08-25 09:24:00,60.9,57.0,30.39,SSW,209,4.0,-999.0,87,-99.99,,,0.00,weatherlink.com 1.10,2013-08-25 13:24:00,
2013-08-25 09:39:00,61.7,55.0,30.39,SSW,205,3.0,-999.0,79,-99.99,,,0.00,weatherlink.com 1.10,2013-08-25 13:39:00,
2013-08-25 09:54:00,62.2,55.0,30.39,SSE,166,2.0,-999.0,76,-99.99,,,0.00,weatherlink.com 1.10,2013-08-25 13:54:00,
2013-08-25 10:09:00,63.7,55.0,30.39,SE,140,4.0,-999.0,74,-99.99,,,0.00,weatherlink.com 1.10,2013-08-25 14:09:00,
2013-08-25 10:24:00,62.2,57.0,30.40,SSW,206,5.0,-999.0,84,-99.99,,,0.00,weatherlink.com 1.10,2013-08-25 14:24:00,
2013-08-25 10:39:00,61.2,56.0,30.40,West,276,0.0,-999.0,83,-99.99,,,0.00,weatherlink.com 1.10,2013-08-25 14:39:00,
2013-08-25 10:54:00,62.6,56.0,30.40,WSW,249,0.0,-999.0,80,-99.99,,,0.00,weatherlink.com 1.10,2013-08-25 14:54:00,
2013-08-25 11:09:00,64.0,56.0,30.40,South,178,2.0,-999.0,74,-99.99,,,0.00,weatherlink.com 1.10,2013-08-25 15:09:00,
2013-08-25 11:24:00,63.6,55.0,30.39,SW,218,1.0,-999.0,74,-99.99,,,0.00,weatherlink.com 1.10,2013-08-25 15:24:00,
2013-08-25 11:39:00,63.7,56.0,30.39,SW,219,1.0,-999.0,76,-99.99,,,0.00,weatherlink.com 1.10,2013-08-25 15:39:00,
2013-08-25 11:54:00,64.5,58.0,30.39,SSW,211,4.0,-999.0,78,-99.99,,,0.00,weatherlink.com 1.10,2013-08-25 15:54:00,
2013-08-25 12:09:00,64.8,56.0,30.38,SW,223,4.0,-999.0,74,-99.99,,,0.00,weatherlink.com 1.10,2013-08-25 16:09:00,
2013-08-25 12:24:00,64.7,57.0,30.39,NNE,16,2.0,-999.0,76,-99.99,,,0.00,weatherlink.com 1.10,2013-08-25 16:24:00,
2013-08-25 12:39:00,63.8,56.0,30.37,West,273,1.0,-999.0,76,-99.99,,,0.00,weatherlink.com 1.10,2013-08-25 16:39:00,
2013-08-25 12:54:00,64.0,56.0,30.38,SSE,148,0.0,-999.0,75,-99.99,,,0.00,weatherlink.com 1.10,2013-08-25 16:54:00,
2013-08-25 13:09:00,64.1,56.0,30.37,SSE,157,0.0,-999.0,76,-99.99,,,0.00,weatherlink.com 1.10,2013-08-25 17:09:00,
2013-08-25 13:24:00,64.0,57.0,30.37,SSW,192,0.0,-999.0,77,-99.99,,,0.00,weatherlink.com 1.10,2013-08-25 17:24:00,
2013-08-25 13:39:00,65.7,57.0,30.36,WNW,285,1.0,-999.0,74,-99.99,,,0.00,weatherlink.com 1.10,2013-08-25 17:39:00,
2013-08-25 13:54:00,67.4,57.0,30.36,SSE,165,2.0,-999.0,70,-99.99,,,0.00,weatherlink.com 1.10,2013-08-25 17:54:00,
2013-08-25 14:09:00,67.5,57.0,30.36,SW,217,2.0,-999.0,69,-99.99,,,0.00,weatherlink.com 1.10,2013-08-25 18:09:00,
2013-08-25 14:24:00,67.6,57.0,30.36,South,178,2.0,-999.0,68,-99.99,,,0.00,weatherlink.com 1.10,2013-08-25 18:24:00,
2013-08-25 14:39:00,68.3,56.0,30.35,SSE,156,4.0,-999.0,65,-99.99,,,0.00,weatherlink.com 1.10,2013-08-25 18:39:00,
2013-08-25 14:54:00,67.9,55.0,30.34,SE,133,0.0,-999.0,64,-99.99,,,0.00,weatherlink.com 1.10,2013-08-25 18:54:00,
2013-08-25 15:09:00,67.6,56.0,30.34,ESE,112,4.0,-999.0,66,-99.99,,,0.00,weatherlink.com 1.10,2013-08-25 19:09:00,
2013-08-25 15:24:00,66.9,56.0,30.34,SE,130,0.0,-999.0,69,-99.99,,,0.00,weatherlink.com 1.10,2013-08-25 19:24:00,
2013-08-25 15:39:00,68.0,57.0,30.34,South,186,2.0,-999.0,67,-99.99,,,0.00,weatherlink.com 1.10,2013-08-25 19:39:00,
2013-08-25 15:54:00,67.1,56.0,30.33,SSE,155,0.0,-999.0,68,-99.99,,,0.00,weatherlink.com 1.10,2013-08-25 19:54:00,
2013-08-25 16:09:00,69.7,56.0,30.32,SE,146,2.0,-999.0,63,-99.99,,,0.00,weatherlink.com 1.10,2013-08-25 20:09:00,
2013-08-25 16:24:00,69.7,57.0,30.32,SSE,168,4.0,-999.0,64,-99.99,,,0.00,weatherlink.com 1.10,2013-08-25 20:24:00,
2013-08-25 16:39:00,66.4,56.0,30.32,ESE,115,0.0,-999.0,69,-99.99,,,0.00,weatherlink.com 1.10,2013-08-25 20:39:00,
2013-08-25 16:54:00,65.3,56.0,30.32,ESE,116,0.0,-999.0,72,-99.99,,,0.00,weatherlink.com 1.10,2013-08-25 20:54:00,
2013-08-25 17:09:00,66.3,57.0,30.32,NNE,22,1.0,-999.0,73,-99.99,,,0.00,weatherlink.com 1.10,2013-08-25 21:09:00,
2013-08-25 17:24:00,67.3,57.0,30.32,ESE,123,0.0,-999.0,70,-99.99,,,0.00,weatherlink.com 1.10,2013-08-25 21:24:00,
2013-08-25 17:39:00,66.4,57.0,30.33,SE,126,6.0,-999.0,71,-99.99,,,0.00,weatherlink.com 1.10,2013-08-25 21:39:00,
2013-08-25 17:54:00,65.2,57.0,30.33,SE,129,0.0,-999.0,74,-99.99,,,0.00,weatherlink.com 1.10,2013-08-25 21:54:00,
2013-08-25 18:09:00,64.9,56.0,30.33,ESE,119,0.0,-999.0,74,-99.99,,,0.00,weatherlink.com 1.10,2013-08-25 22:09:00,
2013-08-25 18:24:00,65.2,56.0,30.33,ESE,123,0.0,-999.0,73,-99.99,,,0.00,weatherlink.com 1.10,2013-08-25 22:24:00,
2013-08-25 18:39:00,65.3,57.0,30.33,SE,124,6.0,-999.0,74,-99.99,,,0.00,weatherlink.com 1.10,2013-08-25 22:39:00,
2013-08-25 18:54:00,64.2,57.0,30.33,ESE,119,0.0,-999.0,76,-99.99,,,0.00,weatherlink.com 1.10,2013-08-25 22:54:00,
2013-08-25 19:09:00,63.8,56.0,30.32,SSE,156,2.0,-999.0,77,-99.99,,,0.00,weatherlink.com 1.10,2013-08-25 23:09:00,
2013-08-25 19:24:00,63.1,56.0,30.33,SSE,150,2.0,-999.0,78,-99.99,,,0.00,weatherlink.com 1.10,2013-08-25 23:24:00,
2013-08-25 19:39:00,62.5,57.0,30.32,SSE,150,0.0,-999.0,81,-99.99,,,0.00,weatherlink.com 1.10,2013-08-25 23:39:00,
2013-08-25 19:54:00,61.7,56.0,30.32,South,171,2.0,-999.0,82,-99.99,,,0.00,weatherlink.com 1.10,2013-08-25 23:54:00,
2013-08-25 20:09:00,60.6,56.0,30.33,South,171,0.0,-999.0,85,-99.99,,,0.00,weatherlink.com 1.10,2013-08-26 00:09:00,
2013-08-25 20:24:00,59.8,56.0,30.33,South,171,2.0,-999.0,88,-99.99,,,0.00,weatherlink.com 1.10,2013-08-26 00:24:00,
2013-08-25 20:39:00,59.6,56.0,30.33,South,171,2.0,-999.0,87,-99.99,,,0.00,weatherlink.com 1.10,2013-08-26 00:39:00,
2013-08-25 20:54:00,59.7,55.0,30.33,South,171,0.0,-999.0,85,-99.99,,,0.00,weatherlink.com 1.10,2013-08-26 00:54:00,
2013-08-25 21:09:00,59.6,54.0,30.34,South,171,1.0,-999.0,83,-99.99,,,0.00,weatherlink.com 1.10,2013-08-26 01:09:00,
2013-08-25 21:24:00,59.7,54.0,30.34,South,171,1.0,-999.0,82,-99.99,,,0.00,weatherlink.com 1.10,2013-08-26 01:24:00,
2013-08-25 21:39:00,59.6,54.0,30.34,South,171,4.0,-999.0,83,-99.99,,,0.00,weatherlink.com 1.10,2013-08-26 01:39:00,
2013-08-25 21:54:00,59.3,55.0,30.34,South,171,0.0,-999.0,85,-99.99,,,0.00,weatherlink.com 1.10,2013-08-26 01:54:00,
2013-08-25 22:09:00,59.0,54.0,30.35,South,171,1.0,-999.0,84,-99.99,,,0.00,weatherlink.com 1.10,2013-08-26 02:09:00,
2013-08-25 22:24:00,59.0,54.0,30.35,South,171,2.0,-999.0,83,-99.99,,,0.00,weatherlink.com 1.10,2013-08-26 02:24:00,
2013-08-25 22:39:00,58.7,54.0,30.35,South,171,4.0,-999.0,84,-99.99,,,0.00,weatherlink.com 1.10,2013-08-26 02:39:00,
2013-08-25 22:54:00,58.5,54.0,30.35,South,171,0.0,-999.0,86,-99.99,,,0.00,weatherlink.com 1.10,2013-08-26 02:54:00,
2013-08-25 23:09:00,58.1,54.0,30.35,South,171,0.0,-999.0,87,-99.99,,,0.00,weatherlink.com 1.10,2013-08-26 03:09:00,
2013-08-25 23:24:00,57.8,55.0,30.35,South,171,0.0,-999.0,90,-99.99,,,0.00,weatherlink.com 1.10,2013-08-26 03:24:00,
2013-08-25 23:39:00,57.6,55.0,30.35,SSW,211,0.0,-999.0,91,-99.99,,,0.00,weatherlink.com 1.10,2013-08-26 03:39:00,
2013-08-25 23:54:00,57.6,55.0,30.36,SSW,212,0.0,-999.0,91,-99.99,,,0.00,weatherlink.com 1.10,2013-08-26 03:54:00,